Regional Weather Roundup
Issued by NWS

Home | Current Version | Previous Version | Text Only | Print | Product List | Glossary Off
Versions: 1 2 3 4 5 6 7 8 9 10 11 12 13 14 15 16 17 18 19 20 21 22 23 24 25 26 27 28 29 30 31 32 33 34 35 36 37 38 39 40 41 42 43 44 45 46 47 48 49 50

000
ASUS43 KMKX 281100
RWRWI

WISCONSIN REGIONAL WEATHER ROUNDUP
NATIONAL WEATHER SERVICE MILWAUKEE/SULLIVAN WI
600 AM CDT MON JUL 28 2014

NOTE: "FAIR" INDICATES FEW OR NO CLOUDS BELOW 12,000 FEET WITH NO
SIGNIFICANT WEATHER AND/OR OBSTRUCTIONS TO VISIBILITY.

WIZ001-002-006>008-014>016-023>028-281200-
NORTHWEST WISCONSIN

CITY           SKY/WX    TMP DP  RH WIND       PRES   REMARKS
SUPERIOR ARPT  CLOUDY    55  54  97 CALM      30.16R
ASHLAND        CLOUDY    53  51  93 SW3       30.14R
HAYWARD        FOG       48  48 100 CALM      30.17R VSB 1/4
SIREN          CLOUDY    56  55  96 CALM      30.17R
RICE LAKE      CLOUDY    56  55  94 CALM      30.17S
LADYSMITH      CLEAR     54  52  95 NW7       30.17R
EAU CLAIRE     NOT AVBL
MENOMONIE      CLOUDY    57  56  94 W3        30.16R
NEW RICHMOND   CLOUDY    58  57  97 CALM      30.17R
OSCEOLA        CLOUDY    58  58 100 CALM      30.19S
$$

WIZ003>005-009-010-017-018-281200-
NORTH CENTRAL WISCONSIN

CITY           SKY/WX    TMP DP  RH WIND       PRES   REMARKS
WOODRUFF       CLEAR     44  42  92 CALM      30.12R
RHINELANDER    CLEAR     49  47  93 NW3       30.12R
EAGLE RIVER    CLEAR     46  46 100 CALM      30.11R
LAND O LAKES   MOCLDY    49  47  92 NW3       30.11R
PHILLIPS       CLEAR     46  46 100 CALM      30.14R
TOMAHAWK       CLEAR     45  44  96 W3        30.13S
MEDFORD        CLEAR     49  48  95 NW6       30.14R
MERRILL        CLEAR     48  48  97 NW3       30.12R
$$

WIZ029-030-035-036-043>047-281200-
CENTRAL WISCONSIN

CITY           SKY/WX    TMP DP  RH WIND       PRES   REMARKS
WAUSAU         CLEAR     51  49  92 NW8       30.11R
MOSINEE        CLEAR     48  48 100 NW6       30.12R
MARSHFIELD     CLEAR     51  48  89 NW9       30.12R
STEVENS POINT  CLEAR     50  47  92 NW6       30.11R
WAUPACA        CLEAR     54  51  89 NW5       30.09R
WAUTOMA        NOT AVBL
WISC RAPIDS    CLEAR     52  49  89 MISG      30.13R
CAMP DOUGLAS   NOT AVBL
$$

WIZ011>013-019>022-031-037>040-048>050-281200-
NORTHEAST WISCONSIN

CITY           SKY/WX    TMP DP  RH WIND       PRES   REMARKS
ANTIGO         CLEAR     48  47  97 NW6       30.10R
STURGEON BAY   CLEAR     52  43  71 N20G26    30.03R
GREEN BAY      CLEAR     52  46  80 NW10      30.05R
MANITOWOC      NOT AVBL
APPLETON       MOCLDY    52  48  87 N9        30.07R
CLINTONVILLE   CLEAR     52  46  82 NW7       30.08R
OSHKOSH        CLEAR     54  49  83 N9        30.06R
$$

WIZ032>034-041-042-053>061-281200-
SOUTHWEST WISCONSIN

CITY           SKY/WX    TMP DP  RH WIND       PRES   REMARKS
LA CROSSE      MOCLDY    56  52  86 N6        30.14R
SPARTA         CLEAR     48  46  95 NE3       30.14R
VIROQUA        FAIR      52  52 100 NW6       30.13R
BOSCOBEL       CLEAR     56  51  84 VRB3      30.12R
PRAIRIE DU CHI CLEAR     56  52  84 NW6       30.12R
PLATTEVILLE    FAIR      55  52  90 NW7       30.11R
$$

WIZ056-057-062-063-064-067-068-281200-
SOUTH CENTRAL WISCONSIN

CITY           SKY/WX    TMP DP  RH WIND       PRES   REMARKS
BARABOO/DELLS  CLEAR     53  50  90 NW6       30.10R
LONE ROCK      NOT AVBL
WATERTOWN      CLEAR     53  49  88 N9        30.04R
MADISON        PTCLDY    55  50  83 NW8       30.08R
MIDDLETON      FAIR      54  52  93 NW7       30.09R
MONROE         CLEAR     54  52  94 N10G16    30.06S
JANESVILLE     CLEAR     57  48  72 N10       30.05R
$$

WIZ051-052-058>065-066-070>072-281200-
SOUTHEAST WISCONSIN

CITY           SKY/WX    TMP DP  RH WIND       PRES   REMARKS
MILWAUKEE      PTCLDY    56  47  71 NW10      30.01R
WAUKESHA       CLEAR     52  46  82 NW7       30.03R
MILWAUKEE/TIMM CLEAR     54  45  71 N9        30.02R
RACINE         CLEAR     56  48  74 N12       30.02R
BURLINGTON     CLEAR     52  50  93 NW7       30.02R
KENOSHA        CLEAR     56  49  77 NW8       30.01R
FOND DU LAC    CLEAR     54  47  77 NW16      30.06R
SHEBOYGAN      CLEAR     52  45  77 N9        30.02R
WEST BEND      CLEAR     52  45  76 NW8       30.02R
JUNEAU         CLEAR     52  48  86 NW7       30.06R
$$

LSZ147-162-281200-
LAKE SUPERIOR

STATION/POSITION TIME  TEMP    WIND        PRES    WAVE
                       AIR SEA DIR/SP/G            HT/PER
                 (UTC) (F)     (DEG/KT/KT) (MB)    (FT/S)
W MID LAKE BUOY  0950   50 43  290/ 10/ 10 1018.8R   1
PORT WING        1040   54     160/  3/  5 1021.0R
SAXON HARBOR     1040           CALM  /  4 1020.0S
$$

LMZ867-665-643>646-281200-
LAKE MICHIGAN

STATION/POSITION TIME  TEMP    WIND        PRES    WAVE
                       AIR SEA DIR/SP/G            HT/PER
                 (UTC) (F)     (DEG/KT/KT) (MB)    (FT/S)
N MID LAKE BUOY  0950   53 54  360/ 21/ 27 1014.0R   4/ 5
NORTHPORT PIER   1000   54     350/ 21/ 26 1015.9R
KEWAUNEE LAKESHO 1000   53     330/  8/ 12 1016.4R
SHEBOYGAN LAKESH 1000   58     340/ 17/ 19 1015.8R
PORT WASHINGTON  1000   56     330/  6/ 10 1016.3R
ATWATER BUOY     1000   59     340/ 16     1016.2R
MILWAUKEE LAKESH 1000   58     330/ 11/ 17   N/A
S MID LAKE BUOY  0950   59 59  340/ 23/ 27 1013.0R   8/ 7
KENOSHA   LAKESH 1000   59     330/ 10/ 15 1014.9R
$$

TC  - TEMPERATURE IN CELSIUS
VSB - VISIBILITY IN STATUTE MILES
WCI - WIND CHILL INDEX
HX  - HEAT INDEX



USA.gov is the U.S. government's official web portal to all federal, state and local government web resources and services.